User: anonymous   Login
Location: Unspecified
(0.0000°N, 0.0000°E)
Time: 09:17:37
(UTC+02:00)
Language:

Cosmos 1833 Rocket - Orbit

View from above orbital plane
View from above orbital plane
View from above satellite
View from above satellite

Ground track
Ground track

The orbit data is extracted from the following two-line orbital elements,

1 17590U 87027B   15142.51141588 -.00000212  00000-0 -81991-4 0  9991
2 17590 071.0029 303.2831 0004850 351.3969 008.7070 14.16694552456950
Epoch (UTC): 22 May 2015 12:16:26
Eccentricity: 0.0004850
inclination: 71.0029°
perigee height: 833 km
apogee height: 840 km
right ascension of ascending node: 303.2831°
argument of perigee: 351.3969°
revolutions per day: 14.16694552
mean anomaly at epoch: 8.7070°
orbit number at epoch: 45695

The dashed part of the orbit path shows where the satellite is in the earth's shadow,  

DLR